Starlink 11680

operational
NORAD ID: 63554 Int'l Des: 2025-075 Owner: SPXS Country: US Constellation: starlink
LEOCIRCULAR

Über Starlink 11680

Beschreibung wird geladen...

Live-Position

3D-Globus wird geladen...

Nächste Überflüge

Höhenverlauf

Altitude vs Time

uPlot chart will show altitude changes over time

Zweizeiliger Elementsatz

1 63554U 25075G 25257.92591090 .00166379 00000-0 12672-2 0 9990
2 63554 43.0000 133.4171 0001670 249.3560 110.7129 15.70973235 25601
Epoch: 14. Sept. 2025 • Age: 14 hours

Aktueller Status

Höhe 355.4 km
Geschwindigkeit 7.70 km/s
Subsatellitenpunkt 22.07°N, 100.83°E
Startdatum 13. Apr. 2025
Alter 0.4 years
Typ internet

Technische Details

Klassifizierung Payload
Masse 960.00 kg
Trockenmasse 910.00 kg
Gesamtmasse 960.00 kg
Länge 0.30 m
Durchmesser 4.10 m
Spannweite 29.00 m
Form Box + pan
Hersteller SPXS
Bus-Typ Starlink V2MD
Phasenstatus In Orbit
Besitzer/Staat SPXS/US

Große Konstellationen

Loading constellations...